Location: Monrovia
(34.7865°N, 86.7139°W)
Time: 00:44:32
(UTC+00:00)

CBERS-1 - Pass Details

Date: 14 July 2020
Orbit: 770 x 777 km, 98.6° (Epoch: 12 August)

Event Time Altitude Azimuth Distance (km) Brightness Sun altitude
Rises 07:36:38 0° 18° (NNE) 3,260 8.5 -28.5°
Reaches altitude 10° 07:39:01 10° 22° (NNE) 2,328 7.5 -28.2°
Maximum altitude 07:44:03 56° 101° (E) 918 4.4 -27.7°
Enters shadow 07:44:10 56° 107° (ESE) 919 4.3 -27.7°
